Weather History for Stanley, ID

Change the Weather History Date:

Sunday, October 6, 2013

  Actual Average Record
Temperature  
Mean Temperature 45 °F 42 °F  
Max Temperature 70 °F 59 °F 76 °F (1988)
Min Temperature 19 °F 25 °F 7 °F (2012)
Degree Days  
Heating Degree Days 20 23  
Month to date heating degree days 165 133  
Since 1 July heating degree days 916 1174  
Cooling Degree Days 0 0  
Month to date cooling degree days 0 0  
Year to date cooling degree days 19 3  
Moisture  
Dew Point 23 °F    
Average Humidity 56    
Maximum Humidity 100    
Minimum Humidity 11    
Precipitation  
Precipitation 0.00 in 0.02 in 0.41 in (2006)
Month to date precipitation 0.03 0.14  
Year to date precipitation 10.53 12.35  
Sea Level Pressure  
Sea Level Pressure 30.27 in    
Wind  
Wind Speed 2 mph (NNE)    
Max Wind Speed 10 mph    
Max Gust Speed 13 mph    
T = Trace of Precipitation, MM = Missing Value Source: NWS Daily Summary

Daily Weather History Graph

Daily Weather History Graph

Search for Another Location

Airport:

Trip Planner

Search our weather history database for the weather conditions in past years. The results will help you decide how hot, cold, wet, or windy it might be!

Date:

Astronomy

Oct. 06, 2013 Rise Set
Actual Time 7:43 AM MDT 7:10 PM MDT
Civil Twilight 7:14 AM MDT 7:39 PM MDT
Nautical Twilight 6:41 AM MDT 8:13 PM MDT
Astronomical Twilight 6:07 AM MDT 8:46 PM MDT
Moon 9:37 AM MDT (10/6) 8:07 PM MDT (10/6)
Length of Visible Light 12h 24m
Length of Day
11h 27m
Waxing Crescent, 4% of the Moon is Illuminated
Oct 6
Waxing Crescent
Oct 11
First Quarter
Oct 18
Full
Oct 26
Last Quarter
Nov 3
New

Hourly Weather History & Observations

Time (MDT) Temp. Windchill Dew Point Humidity Pressure Visibility Wind Dir Wind Speed Gust Speed Precip Events Conditions
12:51 AM 27.0 °F - 23.0 °F 85% 30.40 in - Calm Calm - N/A   Unknown
1:51 AM 25.0 °F - 21.9 °F 88% 30.39 in - Calm Calm - N/A   Unknown
2:51 AM 24.1 °F - 21.9 °F 91% 30.38 in - Calm Calm - N/A   Unknown
3:51 AM 23.0 °F - 21.0 °F 92% 30.34 in - Calm Calm - N/A   Unknown
4:51 AM 21.9 °F - 19.9 °F 92% 30.35 in - Calm Calm - N/A   Unknown
5:51 AM 21.0 °F - 19.0 °F 92% 30.34 in - Calm Calm - N/A   Unknown
6:51 AM 19.9 °F - 19.0 °F 96% 30.40 in - Calm Calm - N/A   Unknown
7:51 AM 19.9 °F - 18.0 °F 92% 30.44 in - Calm Calm - N/A   Unknown
8:51 AM 25.0 °F - 21.9 °F 88% 30.43 in - Calm Calm - N/A   Unknown
9:51 AM 30.9 °F - 26.1 °F 82% 30.41 in - Calm Calm - N/A   Unknown
10:51 AM 37.9 °F 35.5 °F 27.0 °F 65% 30.38 in - North 3.5 mph - N/A   Unknown
11:51 AM 45.0 °F 42.6 °F 27.0 °F 49% 30.32 in - Variable 4.6 mph - N/A   Unknown
12:51 PM 51.1 °F - 28.9 °F 43% 30.28 in - North 4.6 mph - N/A   Unknown
1:51 PM 59.0 °F - 30.0 °F 33% 30.22 in - North 3.5 mph - N/A   Unknown
2:51 PM 64.0 °F - 30.9 °F 29% 30.17 in - North 5.8 mph - N/A   Unknown
3:51 PM 68.0 °F - 23.0 °F 18% 30.13 in - NNW 3.5 mph - N/A   Unknown
4:51 PM 69.1 °F - 17.1 °F 14% 30.11 in - NNW 3.5 mph - N/A   Unknown
5:51 PM 68.0 °F - 12.9 °F 12% 30.11 in - Calm Calm - N/A   Unknown
6:51 PM 50.0 °F - 24.1 °F 36% 30.18 in - South 5.8 mph - N/A   Unknown
7:51 PM 45.0 °F 41.2 °F 24.1 °F 44% 30.19 in - SSE 6.9 mph - N/A   Unknown
8:51 PM 46.0 °F 44.8 °F 25.0 °F 44% 30.16 in - SSE 3.5 mph - N/A   Unknown
9:51 PM 41.0 °F 38.0 °F 25.0 °F 53% 30.15 in - SSE 4.6 mph - N/A   Unknown
10:51 PM 34.0 °F - 24.1 °F 67% 30.16 in - Calm Calm - N/A   Unknown
11:51 PM 32.0 °F 28.7 °F 24.1 °F 73% 30.12 in - South 3.5 mph - N/A   Unknown